Time,TemperatureF,DewpointF,PressureIn,WindDirection,WindDirectionDegrees,WindSpeedMPH,WindSpeedGustMPH,Humidity,HourlyPrecipIn,Conditions,Clouds,dailyrainin,SoftwareType,DateUTC
2013-02-28 00:00:00,40.7,39.0,30.30,West,279,1.0,1.0,93,0.00,,,0.00,,2013-02-28 08:00:00,
2013-02-28 00:10:00,40.6,39.0,30.30,West,279,0.0,0.0,93,0.00,,,0.00,,2013-02-28 08:10:00,
2013-02-28 00:20:00,41.0,39.0,30.30,West,279,0.0,1.0,94,0.00,,,0.00,,2013-02-28 08:20:00,
2013-02-28 00:30:00,40.8,39.0,30.30,West,279,1.0,1.0,93,0.00,,,0.00,,2013-02-28 08:30:00,
2013-02-28 00:40:00,40.7,39.0,30.30,West,279,1.0,2.0,94,0.00,,,0.00,,2013-02-28 08:40:00,
2013-02-28 00:50:00,40.1,38.0,30.30,West,279,0.0,0.0,93,0.00,,,0.00,,2013-02-28 08:50:00,
2013-02-28 01:00:00,39.8,38.0,30.30,West,279,0.0,2.0,93,0.00,,,0.00,,2013-02-28 09:00:00,
2013-02-28 01:10:00,40.0,38.0,30.30,West,279,0.0,0.0,94,0.00,,,0.00,,2013-02-28 09:10:00,
2013-02-28 01:20:00,39.2,37.0,30.31,West,279,2.0,3.0,93,0.00,,,0.00,,2013-02-28 09:20:00,
2013-02-28 01:30:00,39.0,37.0,30.31,West,279,0.0,0.0,93,0.00,,,0.00,,2013-02-28 09:30:00,
2013-02-28 01:40:00,39.1,38.0,30.30,West,279,0.0,2.0,94,0.00,,,0.00,,2013-02-28 09:40:00,
2013-02-28 01:50:00,39.1,38.0,30.30,West,279,2.0,2.0,94,0.00,,,0.00,,2013-02-28 09:50:00,
2013-02-28 02:00:00,38.5,37.0,30.31,West,279,1.0,2.0,94,0.00,,,0.00,,2013-02-28 10:00:00,
2013-02-28 02:10:00,38.5,37.0,30.31,West,279,0.0,1.0,93,0.00,,,0.00,,2013-02-28 10:10:00,
2013-02-28 02:20:00,38.6,37.0,30.31,West,279,0.0,0.0,94,0.00,,,0.00,,2013-02-28 10:20:00,
2013-02-28 02:30:00,38.2,37.0,30.30,West,279,1.0,1.0,94,0.00,,,0.00,,2013-02-28 10:30:00,
2013-02-28 02:40:00,37.9,36.0,30.30,West,279,0.0,1.0,94,0.00,,,0.00,,2013-02-28 10:40:00,
2013-02-28 02:50:00,38.2,37.0,30.29,West,279,2.0,2.0,94,0.00,,,0.00,,2013-02-28 10:50:00,
2013-02-28 03:00:00,38.3,37.0,30.29,West,279,1.0,2.0,94,0.00,,,0.00,,2013-02-28 11:00:00,
2013-02-28 03:10:00,38.0,36.0,30.29,West,279,1.0,3.0,94,0.00,,,0.00,,2013-02-28 11:10:00,
2013-02-28 03:20:00,37.7,36.0,30.29,West,279,0.0,0.0,93,0.00,,,0.00,,2013-02-28 11:20:00,
2013-02-28 03:30:00,37.7,36.0,30.30,West,279,0.0,0.0,94,0.00,,,0.00,,2013-02-28 11:30:00,
2013-02-28 03:40:00,37.2,36.0,30.30,West,279,0.0,1.0,94,0.00,,,0.01,,2013-02-28 11:40:00,
2013-02-28 03:50:00,37.3,36.0,30.30,West,279,1.0,1.0,94,0.00,,,0.01,,2013-02-28 11:50:00,
2013-02-28 04:00:00,37.3,36.0,30.30,West,279,1.0,2.0,94,0.00,,,0.01,,2013-02-28 12:00:00,
2013-02-28 04:10:00,37.9,36.0,30.30,West,279,2.0,2.0,94,0.00,,,0.01,,2013-02-28 12:10:00,
2013-02-28 04:20:00,38.3,37.0,30.30,SSW,211,3.0,3.0,94,0.00,,,0.01,,2013-02-28 12:20:00,
2013-02-28 04:30:00,39.1,38.0,30.30,SSW,209,2.0,2.0,95,0.00,,,0.01,,2013-02-28 12:30:00,
2013-02-28 04:40:00,39.1,38.0,30.30,SSW,209,0.0,1.0,94,0.00,,,0.01,,2013-02-28 12:40:00,
2013-02-28 04:50:00,39.1,38.0,30.30,SSW,209,1.0,2.0,94,0.00,,,0.01,,2013-02-28 12:50:00,
2013-02-28 05:00:00,38.3,36.0,30.30,SSW,209,0.0,0.0,93,0.00,,,0.01,,2013-02-28 13:00:00,
2013-02-28 05:10:00,37.8,36.0,30.30,SSE,155,1.0,2.0,94,0.00,,,0.01,,2013-02-28 13:10:00,
2013-02-28 05:20:00,37.6,36.0,30.30,SSW,208,0.0,0.0,94,0.00,,,0.01,,2013-02-28 13:20:00,
2013-02-28 05:30:00,38.2,37.0,30.30,SSW,208,1.0,1.0,94,0.00,,,0.01,,2013-02-28 13:30:00,
2013-02-28 05:40:00,38.0,36.0,30.30,SSW,208,0.0,1.0,94,0.00,,,0.01,,2013-02-28 13:40:00,
2013-02-28 05:50:00,38.0,36.0,30.30,SSW,208,0.0,0.0,94,0.00,,,0.01,,2013-02-28 13:50:00,
2013-02-28 06:00:00,39.0,38.0,30.30,SSW,208,0.0,1.0,95,0.00,,,0.01,,2013-02-28 14:00:00,
2013-02-28 06:10:00,38.4,37.0,30.30,SSW,208,0.0,1.0,94,0.00,,,0.01,,2013-02-28 14:10:00,
2013-02-28 06:20:00,38.2,37.0,30.30,SSW,208,0.0,2.0,94,0.00,,,0.01,,2013-02-28 14:20:00,
2013-02-28 06:30:00,37.9,36.0,30.31,SSW,208,0.0,0.0,94,0.00,,,0.01,,2013-02-28 14:30:00,
2013-02-28 06:40:00,38.1,37.0,30.31,West,263,1.0,2.0,94,0.00,,,0.01,,2013-02-28 14:40:00,
2013-02-28 06:50:00,37.9,36.0,30.32,NNW,328,0.0,1.0,94,0.00,,,0.01,,2013-02-28 14:50:00,
2013-02-28 07:00:00,37.5,36.0,30.33,NNW,328,0.0,1.0,94,0.00,,,0.01,,2013-02-28 15:00:00,
2013-02-28 07:10:00,37.9,36.0,30.33,NNW,328,0.0,1.0,94,0.00,,,0.01,,2013-02-28 15:10:00,
2013-02-28 07:20:00,39.6,38.0,30.33,WNW,288,1.0,2.0,95,0.00,,,0.01,,2013-02-28 15:20:00,
2013-02-28 07:30:00,40.9,40.0,30.33,WNW,288,0.0,1.0,95,0.00,,,0.01,,2013-02-28 15:30:00,
2013-02-28 07:40:00,43.3,42.0,30.34,WNW,288,0.0,0.0,96,0.00,,,0.01,,2013-02-28 15:40:00,
2013-02-28 07:50:00,46.0,45.0,30.34,WNW,288,0.0,0.0,96,0.00,,,0.01,,2013-02-28 15:50:00,
2013-02-28 08:00:00,48.1,47.0,30.34,WNW,288,0.0,1.0,96,0.00,,,0.01,,2013-02-28 16:00:00,
2013-02-28 08:10:00,49.7,49.0,30.35,WNW,288,0.0,0.0,96,0.00,,,0.01,,2013-02-28 16:10:00,
2013-02-28 08:20:00,50.6,50.0,30.35,NNW,329,0.0,3.0,96,0.00,,,0.01,,2013-02-28 16:20:00,
2013-02-28 08:30:00,52.5,50.0,30.36,NNW,330,2.0,2.0,92,0.00,,,0.01,,2013-02-28 16:30:00,
2013-02-28 08:40:00,54.1,50.0,30.36,NNW,330,0.0,1.0,87,0.00,,,0.01,,2013-02-28 16:40:00,
2013-02-28 08:50:00,55.9,50.0,30.36,NNW,330,2.0,2.0,80,0.00,,,0.01,,2013-02-28 16:50:00,
2013-02-28 09:00:00,58.9,52.0,30.36,NNW,330,0.0,1.0,78,0.00,,,0.01,,2013-02-28 17:00:00,
2013-02-28 09:10:00,61.5,53.0,30.36,NNW,330,1.0,2.0,74,0.00,,,0.01,,2013-02-28 17:10:00,
2013-02-28 09:20:00,65.1,54.0,30.36,NNW,329,0.0,1.0,68,0.00,,,0.01,,2013-02-28 17:20:00,
2013-02-28 09:30:00,67.2,55.0,30.36,NNW,330,0.0,1.0,64,0.00,,,0.01,,2013-02-28 17:30:00,
2013-02-28 09:40:00,69.8,54.0,30.35,NNW,330,0.0,1.0,58,0.00,,,0.01,,2013-02-28 17:40:00,
2013-02-28 09:50:00,71.9,52.0,30.35,NNW,330,0.0,1.0,50,0.00,,,0.01,,2013-02-28 17:50:00,
2013-02-28 10:00:00,72.0,50.0,30.36,NNW,329,0.0,0.0,45,0.00,,,0.01,,2013-02-28 18:00:00,
2013-02-28 10:10:00,73.9,51.0,30.36,NE,42,1.0,3.0,44,0.00,,,0.01,,2013-02-28 18:10:00,
2013-02-28 10:20:00,76.4,51.0,30.36,North,5,1.0,2.0,41,0.00,,,0.01,,2013-02-28 18:20:00,
2013-02-28 10:30:00,78.1,52.0,30.36,NNW,335,1.0,3.0,40,0.00,,,0.01,,2013-02-28 18:30:00,
2013-02-28 10:40:00,78.9,53.0,30.35,NNW,328,0.0,1.0,40,0.00,,,0.01,,2013-02-28 18:40:00,
2013-02-28 10:50:00,79.7,52.0,30.35,NNW,335,0.0,2.0,38,0.00,,,0.01,,2013-02-28 18:50:00,
2013-02-28 11:00:00,81.1,52.0,30.35,NW,316,2.0,3.0,36,0.00,,,0.01,,2013-02-28 19:00:00,
2013-02-28 11:10:00,78.6,41.0,30.34,NNE,30,2.0,14.0,26,0.00,,,0.01,,2013-02-28 19:10:00,
2013-02-28 11:20:00,74.3,43.0,30.34,NNE,31,2.0,8.0,32,0.00,,,0.01,,2013-02-28 19:20:00,
2013-02-28 11:30:00,73.9,45.0,30.34,North,355,1.0,4.0,35,0.00,,,0.01,,2013-02-28 19:30:00,
2013-02-28 11:40:00,77.5,44.0,30.34,North,11,3.0,6.0,31,0.00,,,0.01,,2013-02-28 19:40:00,
2013-02-28 11:50:00,76.3,40.0,30.34,ESE,120,3.0,4.0,27,0.00,,,0.01,,2013-02-28 19:50:00,
2013-02-28 12:00:00,73.2,47.0,30.34,WNW,298,1.0,6.0,39,0.00,,,0.01,,2013-02-28 20:00:00,
2013-02-28 12:10:00,71.9,43.0,30.34,SW,226,2.0,4.0,36,0.00,,,0.01,,2013-02-28 20:10:00,
2013-02-28 12:20:00,75.8,51.0,30.33,NNE,32,1.0,4.0,42,0.00,,,0.01,,2013-02-28 20:20:00,
2013-02-28 12:30:00,76.9,50.0,30.33,West,278,3.0,7.0,39,0.00,,,0.01,,2013-02-28 20:30:00,
2013-02-28 12:40:00,69.7,47.0,30.32,WSW,240,8.0,12.0,44,0.00,,,0.01,,2013-02-28 20:40:00,
2013-02-28 12:50:00,68.2,46.0,30.31,WSW,250,8.0,9.0,45,0.00,,,0.01,,2013-02-28 20:50:00,
2013-02-28 13:00:00,69.6,48.0,30.31,West,275,8.0,11.0,46,0.00,,,0.01,,2013-02-28 21:00:00,
2013-02-28 13:10:00,67.9,47.0,30.31,WSW,239,8.0,13.0,47,0.00,,,0.01,,2013-02-28 21:10:00,
2013-02-28 13:20:00,68.5,47.0,30.30,West,278,5.0,11.0,46,0.00,,,0.01,,2013-02-28 21:20:00,
2013-02-28 13:30:00,70.1,47.0,30.30,WSW,240,11.0,11.0,43,0.00,,,0.01,,2013-02-28 21:30:00,
2013-02-28 13:40:00,69.5,42.0,30.30,West,271,9.0,14.0,37,0.00,,,0.01,,2013-02-28 21:40:00,
2013-02-28 13:50:00,68.4,42.0,30.30,SW,234,11.0,13.0,39,0.00,,,0.01,,2013-02-28 21:50:00,
2013-02-28 14:00:00,68.5,43.0,30.30,WSW,238,12.0,14.0,40,0.00,,,0.01,,2013-02-28 22:00:00,
2013-02-28 14:10:00,68.8,42.0,30.29,WNW,292,8.0,11.0,38,0.00,,,0.01,,2013-02-28 22:10:00,
2013-02-28 14:20:00,69.8,42.0,30.29,West,261,6.0,10.0,36,0.00,,,0.01,,2013-02-28 22:20:00,
2013-02-28 14:30:00,70.6,42.0,30.29,WNW,284,5.0,10.0,35,0.00,,,0.01,,2013-02-28 22:30:00,
2013-02-28 14:40:00,71.3,42.0,30.29,WNW,294,6.0,9.0,35,0.00,,,0.01,,2013-02-28 22:40:00,
2013-02-28 14:50:00,73.3,45.0,30.29,WNW,286,3.0,7.0,36,0.00,,,0.01,,2013-02-28 22:50:00,
2013-02-28 15:00:00,74.4,45.0,30.29,WNW,302,1.0,3.0,35,0.00,,,0.01,,2013-02-28 23:00:00,
2013-02-28 15:10:00,75.6,42.0,30.29,NW,323,1.0,4.0,30,0.00,,,0.01,,2013-02-28 23:10:00,
2013-02-28 15:20:00,75.9,42.0,30.29,WNW,298,2.0,6.0,30,0.00,,,0.01,,2013-02-28 23:20:00,
2013-02-28 15:30:00,76.1,42.0,30.29,NW,304,2.0,5.0,29,0.00,,,0.01,,2013-02-28 23:30:00,
2013-02-28 15:40:00,76.1,42.0,30.29,WNW,287,5.0,8.0,29,0.00,,,0.01,,2013-02-28 23:40:00,
2013-02-28 15:50:00,69.9,46.0,30.29,WNW,302,7.0,12.0,42,0.00,,,0.01,,2013-02-28 23:50:00,
2013-02-28 16:00:00,67.1,48.0,30.28,WSW,256,10.0,12.0,50,0.00,,,0.01,,2013-03-01 00:00:00,
2013-02-28 16:10:00,62.7,49.0,30.28,WSW,250,8.0,9.0,62,0.00,,,0.01,,2013-03-01 00:10:00,
2013-02-28 16:20:00,61.3,49.0,30.28,West,277,3.0,6.0,64,0.00,,,0.01,,2013-03-01 00:20:00,
2013-02-28 16:30:00,63.4,49.0,30.29,WNW,300,1.0,3.0,60,0.00,,,0.01,,2013-03-01 00:30:00,
2013-02-28 16:40:00,65.8,49.0,30.28,WNW,301,0.0,1.0,54,0.00,,,0.01,,2013-03-01 00:40:00,
2013-02-28 16:50:00,64.2,48.0,30.28,WNW,296,1.0,3.0,56,0.00,,,0.01,,2013-03-01 00:50:00,
2013-02-28 17:00:00,62.7,48.0,30.28,West,279,4.0,5.0,58,0.00,,,0.01,,2013-03-01 01:00:00,
2013-02-28 17:10:00,61.1,46.0,30.29,WNW,284,4.0,4.0,58,0.00,,,0.01,,2013-03-01 01:10:00,
2013-02-28 17:20:00,58.5,45.0,30.28,WSW,249,3.0,4.0,60,0.00,,,0.01,,2013-03-01 01:20:00,
2013-02-28 17:30:00,58.0,44.0,30.28,West,269,4.0,4.0,59,0.00,,,0.01,,2013-03-01 01:30:00,
2013-02-28 17:40:00,57.7,45.0,30.29,WSW,258,2.0,3.0,62,0.00,,,0.01,,2013-03-01 01:40:00,
2013-02-28 17:50:00,57.1,45.0,30.29,WSW,257,0.0,0.0,65,0.00,,,0.01,,2013-03-01 01:50:00,
2013-02-28 18:00:00,56.1,45.0,30.29,WSW,257,0.0,3.0,66,0.00,,,0.01,,2013-03-01 02:00:00,
2013-02-28 18:10:00,54.6,44.0,30.30,WSW,257,2.0,2.0,68,0.00,,,0.01,,2013-03-01 02:10:00,
2013-02-28 18:20:00,52.8,44.0,30.30,WSW,257,2.0,3.0,71,0.00,,,0.01,,2013-03-01 02:20:00,
2013-02-28 18:30:00,52.0,44.0,30.30,WSW,257,2.0,3.0,74,0.00,,,0.01,,2013-03-01 02:30:00,
2013-02-28 18:40:00,51.2,44.0,30.30,WSW,257,1.0,2.0,75,0.00,,,0.01,,2013-03-01 02:40:00,
2013-02-28 18:50:00,50.4,43.0,30.30,WSW,257,2.0,2.0,77,0.00,,,0.01,,2013-03-01 02:50:00,
2013-02-28 19:00:00,50.0,44.0,30.31,SSW,210,2.0,3.0,80,0.00,,,0.01,,2013-03-01 03:00:00,
2013-02-28 19:10:00,50.8,45.0,30.32,SW,227,0.0,1.0,81,0.00,,,0.01,,2013-03-01 03:10:00,
2013-02-28 19:20:00,50.0,44.0,30.32,SW,227,0.0,0.0,80,0.00,,,0.01,,2013-03-01 03:20:00,
2013-02-28 19:30:00,49.6,45.0,30.32,SW,227,0.0,2.0,83,0.00,,,0.01,,2013-03-01 03:30:00,
2013-02-28 19:40:00,49.1,44.0,30.33,SW,227,2.0,2.0,83,0.00,,,0.01,,2013-03-01 03:40:00,
2013-02-28 19:50:00,48.7,43.0,30.33,SW,227,1.0,2.0,82,0.00,,,0.01,,2013-03-01 03:50:00,
2013-02-28 20:00:00,48.4,44.0,30.33,SW,227,1.0,1.0,84,0.00,,,0.01,,2013-03-01 04:00:00,
2013-02-28 20:10:00,48.1,44.0,30.33,SW,227,3.0,3.0,84,0.00,,,0.01,,2013-03-01 04:10:00,
2013-02-28 20:20:00,48.1,43.0,30.33,SW,227,0.0,2.0,83,0.00,,,0.01,,2013-03-01 04:20:00,
2013-02-28 20:30:00,47.9,43.0,30.33,SW,227,1.0,1.0,82,0.00,,,0.01,,2013-03-01 04:30:00,
2013-02-28 20:40:00,47.6,42.0,30.34,SW,227,0.0,1.0,82,0.00,,,0.01,,2013-03-01 04:40:00,
2013-02-28 20:50:00,47.3,42.0,30.34,SW,227,0.0,1.0,83,0.00,,,0.01,,2013-03-01 04:50:00,
2013-02-28 21:00:00,47.3,42.0,30.34,SW,227,1.0,1.0,83,0.00,,,0.01,,2013-03-01 05:00:00,
2013-02-28 21:10:00,47.3,42.0,30.35,SW,227,0.0,0.0,83,0.00,,,0.01,,2013-03-01 05:10:00,
2013-02-28 21:20:00,47.4,43.0,30.35,SW,227,0.0,2.0,84,0.00,,,0.01,,2013-03-01 05:20:00,
2013-02-28 21:30:00,47.8,43.0,30.35,SW,227,0.0,2.0,84,0.00,,,0.01,,2013-03-01 05:30:00,
2013-02-28 21:40:00,49.5,45.0,30.35,SW,227,1.0,3.0,84,0.00,,,0.01,,2013-03-01 05:40:00,
2013-02-28 21:50:00,49.5,44.0,30.35,SW,227,0.0,1.0,81,0.00,,,0.01,,2013-03-01 05:50:00,
2013-02-28 22:00:00,49.2,44.0,30.35,SW,227,0.0,1.0,83,0.00,,,0.01,,2013-03-01 06:00:00,
2013-02-28 22:10:00,49.4,45.0,30.35,SW,227,2.0,3.0,85,0.00,,,0.01,,2013-03-01 06:10:00,
2013-02-28 22:20:00,51.7,45.0,30.35,SW,227,0.0,1.0,79,0.00,,,0.01,,2013-03-01 06:20:00,
2013-02-28 22:30:00,50.8,45.0,30.35,SW,227,0.0,2.0,80,0.00,,,0.01,,2013-03-01 06:30:00,
2013-02-28 22:40:00,50.8,45.0,30.35,SW,227,0.0,0.0,81,0.00,,,0.01,,2013-03-01 06:40:00,
2013-02-28 22:50:00,51.9,46.0,30.36,SW,227,2.0,2.0,80,0.00,,,0.01,,2013-03-01 06:50:00,
2013-02-28 23:00:00,52.0,46.0,30.35,SW,227,0.0,2.0,79,0.00,,,0.01,,2013-03-01 07:00:00,
2013-02-28 23:10:00,51.8,46.0,30.35,SW,227,0.0,3.0,80,0.00,,,0.01,,2013-03-01 07:10:00,
2013-02-28 23:20:00,51.4,45.0,30.34,SW,227,2.0,2.0,80,0.00,,,0.01,,2013-03-01 07:20:00,
2013-02-28 23:30:00,51.0,45.0,30.35,SW,227,0.0,2.0,81,0.00,,,0.01,,2013-03-01 07:30:00,
2013-02-28 23:40:00,50.9,45.0,30.35,SW,227,0.0,1.0,80,0.00,,,0.01,,2013-03-01 07:40:00,
2013-02-28 23:50:00,51.0,45.0,30.35,SW,227,0.0,2.0,80,0.00,,,0.01,,2013-03-01 07:50:00,